Stations météo

réclame
Mon MeteoGroup
Pescara, Italie (16230): Température de l'air & dewpoint: 17.09.2018 04:00:00 - 23.09.2018 04:00:00 (CEST)Pescara, Italie (16230): Vitesse du vent: 17.09.2018 04:00:00 - 23.09.2018 04:00:00 (CEST)Pescara, Italie (16230): Direction du vent: 17.09.2018 04:00:00 - 23.09.2018 04:00:00 (CEST)Pescara, Italie (16230): reduced air pressure: 17.09.2018 04:00:00 - 23.09.2018 04:00:00 (CEST)Pescara, Italie (16230): visibility: 17.09.2018 04:00:00 - 23.09.2018 04:00:00 (CEST)Pescara, Italie (16230): Quantités de précipitations: 17.09.2018 04:00:00 - 23.09.2018 04:00:00 (CEST)
Date & Time tt [°C] td [°C] ff [km/h] ff [knt] dd ppp [hPa] vv [km] rr [mm]
23.09.2018 04:00:00 19,0 18,0 8 4 SSW - 8 -
23.09.2018 03:00:00 20,0 19,0 9 5 SSW - 9 -
23.09.2018 02:00:00 20,7 19,7 4 2 SW 1018,4 10 -
23.09.2018 01:00:00 21,0 20,0 8 4 SSW - 9 -
23.09.2018 00:00:00 22,0 21,0 4 2 WSW - 6 -
22.09.2018 23:00:00 21,8 21,0 8 4 SSW 1018,3 15 0,0
22.09.2018 22:00:00 23,0 22,0 2 1 - - 10 -
22.09.2018 21:00:00 24,0 22,0 5 3 ENE - 10 -
22.09.2018 20:00:00 24,1 21,5 5 3 ENE 1017,3 20 -
22.09.2018 19:00:00 26,0 22,0 8 4 ENE - 10 -
22.09.2018 18:00:00 27,0 22,0 11 6 E - 10 -
22.09.2018 17:00:00 27,3 21,3 13 7 E 1016,5 10 0,0
22.09.2018 16:00:00 29,0 21,0 16 9 ENE - 10 -
22.09.2018 15:00:00 29,0 20,0 15 8 ENE - 10 -
22.09.2018 14:00:00 29,4 19,7 16 9 ENE 1016,2 30 -
22.09.2018 13:00:00 30,0 19,0 15 8 ESE - 10 -
22.09.2018 12:00:00 28,0 20,0 13 7 ENE - 10 -
22.09.2018 11:00:00 27,9 18,0 4 2 SSE 1017,2 30 0,0
22.09.2018 10:00:00 25,0 18,0 4 2 - - 10 -
22.09.2018 09:00:00 22,0 18,0 5 3 S - 10 -
22.09.2018 08:00:00 18,9 17,9 5 3 SW 1016,6 20 -
22.09.2018 07:00:00 18,0 17,0 4 2 WSW - 10 -
22.09.2018 06:00:00 18,0 17,0 5 3 SW - 10 -
22.09.2018 05:00:00 17,8 17,3 5 3 SSW 1015,7 20 0,0
22.09.2018 04:00:00 18,0 18,0 8 4 SW - 5 -
22.09.2018 03:00:00 19,0 18,0 9 5 SSW - 6 -
22.09.2018 02:00:00 19,7 19,0 5 3 SW 1016,1 15 -
22.09.2018 01:00:00 20,0 20,0 2 1 - - 7 -
22.09.2018 00:00:00 21,0 20,0 5 3 SW - 5 -
21.09.2018 23:00:00 20,6 19,7 5 3 SSW 1016,3 15 0,0
21.09.2018 22:00:00 22,0 20,0 4 2 - - 10 -
21.09.2018 21:00:00 23,0 21,0 2 1 - - 10 -
21.09.2018 20:00:00 24,2 20,7 2 1 N 1015,6 20 -
21.09.2018 19:00:00 24,0 20,0 5 3 ENE - 10 -
21.09.2018 18:00:00 26,0 20,0 8 4 E - 10 -
21.09.2018 17:00:00 25,6 19,9 9 5 E 1015,3 18 0,0
21.09.2018 16:00:00 27,0 20,0 15 8 ENE - 10 -
21.09.2018 15:00:00 27,0 20,0 15 8 ENE - 10 -
21.09.2018 14:00:00 26,8 19,4 16 9 ENE 1016,0 15 -
21.09.2018 13:00:00 27,0 18,0 15 8 NE - 10 -
21.09.2018 12:00:00 27,0 18,0 9 5 NE - 10 -
21.09.2018 11:00:00 26,1 18,1 4 2 NW 1017,0 20 0,0
21.09.2018 10:00:00 24,0 19,0 8 4 SW - 10 -
21.09.2018 09:00:00 21,0 18,0 8 4 WSW - 10 -
21.09.2018 08:00:00 18,7 17,9 9 5 SW 1016,4 10 -
21.09.2018 07:00:00 18,0 18,0 5 3 SW - 10 -
21.09.2018 06:00:00 19,0 18,0 9 5 SSW - 10 -
21.09.2018 05:00:00 19,3 18,2 4 2 N 1016,4 12 0,0
21.09.2018 04:00:00 19,0 18,0 5 3 SW - 10 -
21.09.2018 03:00:00 19,0 18,0 8 4 SSW - 10 -
21.09.2018 02:00:00 19,0 18,0 4 2 S 1017,0 20 -
21.09.2018 01:00:00 19,0 18,0 9 5 SSW - 10 -
21.09.2018 00:00:00 20,0 19,0 4 2 W - 10 -
20.09.2018 23:00:00 19,7 18,5 5 3 SSW 1017,7 20 0,0
20.09.2018 22:00:00 21,0 19,0 5 3 SSW - 10 -
20.09.2018 21:00:00 22,0 19,0 4 2 WSW - 10 -
20.09.2018 20:00:00 22,8 18,6 2 1 N 1017,9 15 -
20.09.2018 19:00:00 24,0 19,0 5 3 NE - 10 -
20.09.2018 18:00:00 24,0 18,0 5 3 NE - 10 -
20.09.2018 17:00:00 25,8 16,6 9 5 NE 1017,8 18 0,0
20.09.2018 16:00:00 27,0 18,0 11 6 NE - 10 -
20.09.2018 15:00:00 26,0 18,0 11 6 N - 10 -
20.09.2018 14:00:00 26,1 18,5 8 4 NE 1018,7 10 -
20.09.2018 13:00:00 26,0 19,0 5 3 NNE - 10 -
20.09.2018 12:00:00 25,0 18,0 8 4 SSW - 10 -
20.09.2018 11:00:00 23,3 18,8 5 3 WSW 1020,1 11 0,0
20.09.2018 10:00:00 21,0 19,0 8 4 SSW - 7 -
20.09.2018 09:00:00 20,0 19,0 9 5 SSW - 9 -
20.09.2018 08:00:00 20,2 18,7 5 3 WNW 1019,6 10 -
20.09.2018 07:00:00 20,0 19,0 8 4 SW - 10 -
20.09.2018 06:00:00 20,0 20,0 2 1 - - 10 -
20.09.2018 05:00:00 20,1 19,6 4 2 SW 1018,8 20 0,0
20.09.2018 04:00:00 20,0 20,0 5 3 WSW - 10 -
20.09.2018 03:00:00 20,0 20,0 5 3 WSW - 10 -
20.09.2018 02:00:00 20,5 19,9 4 2 SSW 1019,3 20 -
20.09.2018 01:00:00 21,0 20,0 4 2 W - 10 -
20.09.2018 00:00:00 21,0 20,0 8 4 SSW - 10 -
19.09.2018 23:00:00 21,2 20,3 5 3 W 1020,1 10 0,0
19.09.2018 22:00:00 21,0 20,0 8 4 SW - 9 -
19.09.2018 21:00:00 22,0 21,0 8 4 SW - 6 -
19.09.2018 20:00:00 21,6 20,7 8 4 SW 1019,6 6 -
19.09.2018 19:00:00 22,0 22,0 8 4 WSW - 4,0 -
19.09.2018 18:00:00 24,0 21,0 4 2 ENE - 10 -
19.09.2018 17:00:00 24,8 20,4 9 5 NE 1018,9 15 0,0
19.09.2018 16:00:00 25,0 21,0 13 7 ENE - 10 -
19.09.2018 15:00:00 26,0 21,0 15 8 ENE - 10 -
19.09.2018 14:00:00 26,0 20,4 13 7 NE 1019,4 15 -
19.09.2018 13:00:00 26,0 20,0 11 6 ENE - 10 -
19.09.2018 12:00:00 26,0 21,0 8 4 - - 10 -
19.09.2018 11:00:00 24,7 19,6 2 1 N 1020,3 15 0,0
19.09.2018 10:00:00 23,0 19,0 4 2 - - 10 -
19.09.2018 09:00:00 20,0 19,0 8 4 SSW - 10 -
19.09.2018 08:00:00 18,9 18,1 8 4 SW 1019,7 15 -
19.09.2018 07:00:00 19,0 18,0 5 3 SW - 10 -
19.09.2018 06:00:00 18,0 17,0 8 4 SSW - 10 -
19.09.2018 05:00:00 18,3 17,6 5 3 SW 1019,2 15 0,0
19.09.2018 04:00:00 19,0 18,0 9 5 SW - 10 -
19.09.2018 03:00:00 20,0 19,0 8 4 SW - 10 -
19.09.2018 02:00:00 19,4 18,7 8 4 SSW 1019,3 16 -
19.09.2018 01:00:00 20,0 19,0 5 3 WSW - 10 -
19.09.2018 00:00:00 21,0 20,0 8 4 SW - 8 -
18.09.2018 23:00:00 20,9 20,1 8 4 SSW 1019,7 20 0,0
18.09.2018 22:00:00 22,0 21,0 8 4 SW - 10 -
18.09.2018 21:00:00 23,0 21,0 5 3 NW - 10 -
18.09.2018 20:00:00 23,5 21,4 4 2 WSW 1019,4 15 -
18.09.2018 19:00:00 25,0 20,0 5 3 E - 10 -
18.09.2018 18:00:00 26,0 21,0 15 8 ENE - 10 -
18.09.2018 17:00:00 27,0 20,4 15 8 ENE 1018,7 20 0,0
18.09.2018 16:00:00 27,0 21,0 15 8 E - 10 -
18.09.2018 15:00:00 27,0 21,0 15 8 NE - 10 -
18.09.2018 14:00:00 27,1 20,8 13 7 NE 1019,7 20 -
18.09.2018 13:00:00 26,0 20,0 13 7 ENE - 10 -
18.09.2018 12:00:00 26,0 20,0 8 4 ENE - 10 -
18.09.2018 11:00:00 24,5 18,4 4 2 SW 1020,8 20 0,0
18.09.2018 10:00:00 22,0 19,0 5 3 WSW - 10 -
18.09.2018 09:00:00 21,0 19,0 9 5 SSW - 10 -
18.09.2018 08:00:00 19,9 19,2 5 3 SSW 1020,3 20 -
18.09.2018 07:00:00 19,0 18,0 5 3 SSW - 10 -
18.09.2018 06:00:00 19,0 18,0 8 4 SW - 10 -
18.09.2018 05:00:00 18,9 18,3 5 3 SSW 1019,8 20 0,0
18.09.2018 04:00:00 19,0 18,0 5 3 SW - 10 -
18.09.2018 03:00:00 19,0 18,0 8 4 SSW - 10 -
18.09.2018 02:00:00 19,1 18,7 5 3 SW 1019,8 20 -
18.09.2018 01:00:00 19,0 19,0 5 3 SSW - 8 -
18.09.2018 00:00:00 20,0 19,0 5 3 SW - 9 -
17.09.2018 23:00:00 20,3 19,4 5 3 SSW 1020,3 15 0,0
17.09.2018 22:00:00 20,0 20,0 8 4 SW - 10 -
17.09.2018 21:00:00 21,0 19,0 9 5 SW - 10 -
17.09.2018 20:00:00 24,0 19,0 4 2 - - 10 -
17.09.2018 19:00:00 25,0 20,0 8 4 N - 10 -
17.09.2018 18:00:00 26,0 20,0 13 7 ENE - 10 -
17.09.2018 17:00:00 26,5 21,1 16 9 ENE 1019,7 15 0,0
17.09.2018 16:00:00 27,0 20,0 16 9 ENE - 10 -
17.09.2018 15:00:00 28,0 21,0 18 10 NE - 10 -
17.09.2018 14:00:00 27,6 20,6 16 9 ENE 1020,8 20 -
17.09.2018 13:00:00 27,0 20,0 15 8 ENE - 10 -
17.09.2018 12:00:00 28,0 20,0 13 7 NE - 10 -
17.09.2018 11:00:00 26,7 18,7 5 3 NNW 1021,7 20 0,0
17.09.2018 10:00:00 25,0 18,0 8 4 SW - 10 -
17.09.2018 09:00:00 23,0 19,0 8 4 SSW - 10 -
17.09.2018 08:00:00 20,5 18,8 8 4 SW 1021,5 20 -
17.09.2018 07:00:00 20,0 19,0 4 2 SW - 8 -
17.09.2018 06:00:00 20,0 19,0 5 3 SSW - 10 -
17.09.2018 05:00:00 19,5 18,9 4 2 SSW 1021,2 12 0,0
17.09.2018 04:00:00 19,0 19,0 5 3 SW - 4,3 -

tt = Température de l'air
td = dewpoint
ff = Vitesse du vent
dd = Direction du vent
ppp = reduced air pressure
vv = visibility
rr = Quantités de précipitations

stations d'obs. à proximité